This is the latest recevied weather packets stored in our database for station/object VA6GSB-13. If no packets are shown the sender has not sent any weather packets the latest 10 day(s).
| Time | Temp. | Humidity | Pressure | Rain* | Wind** | Luminosity | Snow |
|---|---|---|---|---|---|---|---|
| 1787413239 | 16.11° C | 77% | 1016 hPa | 0 mm | - | 333 W/m² | - |
| 1787412940 | 15.56° C | 79% | 1016 hPa | 0 mm | - | 327 W/m² | - |
| 1787412864 | 15.56° C | 78% | 1016.1 hPa | 0 mm | - | 328 W/m² | - |
| 1787412563 | 15.56° C | 79% | 1016.3 hPa | 0 mm | - | 320 W/m² | - |
| 1787412339 | 15.56° C | 79% | 1016 hPa | 0 mm | - | 302 W/m² | - |
| 1787412040 | 15.56° C | 79% | 1016 hPa | 0 mm | - | 285 W/m² | - |
| 1787411740 | 15° C | 80% | 1016 hPa | 0 mm | - | 270 W/m² | - |
| 1787411664 | 15° C | 80% | 1016.3 hPa | 0 mm | - | 268 W/m² | - |
| 1787411440 | 15° C | 80% | 1016 hPa | 0 mm | - | 249 W/m² | - |
| 1787411139 | 15° C | 81% | 1016 hPa | 0 mm | - | 237 W/m² | - |
| 1787410839 | 14.44° C | 81% | 1016 hPa | 0 mm | - | 231 W/m² | - |
| 1787410540 | 14.44° C | 82% | 1016 hPa | 0 mm | - | 220 W/m² | - |
| 1787410240 | 13.89° C | 83% | 1016 hPa | 0 mm | - | 214 W/m² | - |
| 1787410163 | 13.89° C | 84% | 1016.2 hPa | 0 mm | - | 212 W/m² | - |
| 1787409940 | 13.89° C | 84% | 1016 hPa | 0 mm | - | 215 W/m² | - |
| 1787409641 | 13.89° C | 84% | 1016 hPa | 0 mm | - | 209 W/m² | - |
| 1787409339 | 13.33° C | 84% | 1016 hPa | 0 mm | - | 184 W/m² | - |
| 1787409265 | 13.33° C | 85% | 1016.3 hPa | 0 mm | - | 180 W/m² | - |
| 1787409039 | 13.33° C | 86% | 1016 hPa | 0 mm | - | 160 W/m² | - |
| 1787408964 | 13.33° C | 85% | 1016.4 hPa | 0 mm | - | 156 W/m² | - |
| 1787408664 | 13.33° C | 86% | 1016.4 hPa | 0 mm | - | 152 W/m² | - |
| 1787408363 | 13.33° C | 85% | 1016.2 hPa | 0 mm | - | 144 W/m² | - |
| 1787408139 | 13.33° C | 86% | 1016 hPa | 0 mm | - | 145 W/m² | - |
| 1787408064 | 12.78° C | 86% | 1016.3 hPa | 0 mm | - | 147 W/m² | - |
| 1787407763 | 12.78° C | 87% | 1016.3 hPa | 0 mm | - | 149 W/m² | - |
* Rain latest hour (hover to see other rain measurements)
** Current wind speed in m/s (hover to see current wind gust speed)